Location: Nelson
(41.2830°S, 173.2830°E)
Time: 15:19:35
(UTC+12:00)

USA 234 - Pass Details

Date: 14 May 2021
Orbit: 1102 x 1105 km, 123.0° (Epoch: 18 April)

Event Time Altitude Azimuth Distance (km) Brightness Sun altitude
Exits shadow 19:50:02 26° 164° (SSE) 2,041 4.5 -28.3°
Maximum altitude 19:52:39 35° 204° (SSW) 1,714 4.4 -28.8°
Drops below altitude 10° 19:58:30 10° 267° (W) 2,981 6.5 -29.9°
Sets 20:01:11 0° 275° (W) 3,936 7.3 -30.4°
